Year,Month,Day,Hour,Minute,Value (Times are PST for temperature in C)
2010,08,24,00,00,12.40
2010,08,24,00,01,12.40
2010,08,24,00,02,12.40
2010,08,24,00,03,12.30
2010,08,24,00,04,12.30
2010,08,24,00,05,12.30
2010,08,24,00,06,12.30
2010,08,24,00,07,12.20
2010,08,24,00,08,12.20
2010,08,24,00,09,12.20
2010,08,24,00,10,12.20
2010,08,24,00,11,12.10
2010,08,24,00,12,12.10
2010,08,24,00,13,12.10
2010,08,24,00,14,12.10
2010,08,24,00,15,12.10
2010,08,24,00,16,12.10
2010,08,24,00,17,12.10
2010,08,24,00,18,12.10
2010,08,24,00,19,12.10
2010,08,24,00,20,12.10
2010,08,24,00,21,12.00
2010,08,24,00,22,12.00
2010,08,24,00,23,12.00
2010,08,24,00,24,12.00
2010,08,24,00,25,12.00
2010,08,24,00,26,12.00
2010,08,24,00,27,12.00
2010,08,24,00,28,11.90
2010,08,24,00,29,11.90
2010,08,24,00,30,11.90
2010,08,24,00,31,11.90
2010,08,24,00,32,11.90
2010,08,24,00,33,11.90
2010,08,24,00,34,11.90
2010,08,24,00,35,11.90
2010,08,24,00,36,11.90
2010,08,24,00,37,11.90
2010,08,24,00,38,11.90
2010,08,24,00,39,11.90
2010,08,24,00,40,11.90
2010,08,24,00,41,11.90
2010,08,24,00,42,11.90
2010,08,24,00,43,11.90
2010,08,24,00,44,11.90
2010,08,24,00,45,11.90
2010,08,24,00,46,11.90
2010,08,24,00,47,11.90
2010,08,24,00,48,11.80
2010,08,24,00,49,11.80
2010,08,24,00,50,11.80
2010,08,24,00,51,11.80
2010,08,24,00,52,11.80
2010,08,24,00,53,11.80
2010,08,24,00,54,11.80
2010,08,24,00,55,11.70
2010,08,24,00,56,11.70
2010,08,24,00,57,11.70
2010,08,24,00,58,11.70
2010,08,24,00,59,11.70
2010,08,24,01,00,11.70
2010,08,24,01,01,11.70
2010,08,24,01,02,11.70
2010,08,24,01,03,11.70
2010,08,24,01,04,11.70
2010,08,24,01,05,11.70
2010,08,24,01,06,11.70
2010,08,24,01,07,11.70
2010,08,24,01,08,11.70
2010,08,24,01,09,11.70
2010,08,24,01,10,11.70
2010,08,24,01,11,11.70
2010,08,24,01,12,11.70
2010,08,24,01,13,11.70
2010,08,24,01,14,11.70
2010,08,24,01,15,11.70
2010,08,24,01,16,11.70
2010,08,24,01,17,11.70
2010,08,24,01,18,11.70
2010,08,24,01,19,11.60
2010,08,24,01,20,11.60
2010,08,24,01,21,11.60
2010,08,24,01,22,11.60
2010,08,24,01,23,11.60
2010,08,24,01,24,11.60
2010,08,24,01,25,11.60
2010,08,24,01,26,11.60
2010,08,24,01,27,11.60
2010,08,24,01,28,11.60
2010,08,24,01,29,11.60
2010,08,24,01,30,11.60
2010,08,24,01,31,11.60
2010,08,24,01,32,11.60
2010,08,24,01,33,11.60
2010,08,24,01,34,11.60
2010,08,24,01,35,11.50
2010,08,24,01,36,11.50
2010,08,24,01,37,11.50
2010,08,24,01,38,11.50
2010,08,24,01,39,11.50
2010,08,24,01,40,11.50
2010,08,24,01,41,11.50
2010,08,24,01,42,11.50
2010,08,24,01,43,11.50
2010,08,24,01,44,11.50
2010,08,24,01,45,11.50
2010,08,24,01,46,11.40
2010,08,24,01,47,11.40
2010,08,24,01,48,11.40
2010,08,24,01,49,11.40
2010,08,24,01,50,11.40
2010,08,24,01,51,11.40
2010,08,24,01,52,11.40
2010,08,24,01,53,11.40
2010,08,24,01,54,11.40
2010,08,24,01,55,11.40
2010,08,24,01,56,11.40
2010,08,24,01,57,11.30
2010,08,24,01,58,11.30
2010,08,24,01,59,11.30
2010,08,24,02,00,11.30
2010,08,24,02,01,11.30
2010,08,24,02,02,11.30
2010,08,24,02,03,11.30
2010,08,24,02,04,11.30
2010,08,24,02,05,11.30
2010,08,24,02,06,11.30
2010,08,24,02,07,11.30
2010,08,24,02,08,11.20
2010,08,24,02,09,11.20
2010,08,24,02,10,11.20
2010,08,24,02,11,11.20
2010,08,24,02,12,11.20
2010,08,24,02,13,11.20
2010,08,24,02,14,11.20
2010,08,24,02,15,11.20
2010,08,24,02,16,11.20
2010,08,24,02,17,11.20
2010,08,24,02,18,11.20
2010,08,24,02,19,11.20
2010,08,24,02,20,11.20
2010,08,24,02,21,11.20
2010,08,24,02,22,11.10
2010,08,24,02,23,11.10
2010,08,24,02,24,11.10
2010,08,24,02,25,11.10
2010,08,24,02,26,11.10
2010,08,24,02,27,11.10
2010,08,24,02,28,11.10
2010,08,24,02,29,11.10
2010,08,24,02,30,11.10
2010,08,24,02,31,11.10
2010,08,24,02,32,11.00
2010,08,24,02,33,11.00
2010,08,24,02,34,11.00
2010,08,24,02,35,11.00
2010,08,24,02,36,11.00
2010,08,24,02,37,11.00
2010,08,24,02,38,11.00
2010,08,24,02,39,11.00
2010,08,24,02,40,11.00
2010,08,24,02,41,10.90
2010,08,24,02,42,10.90
2010,08,24,02,43,10.90
2010,08,24,02,44,10.90
2010,08,24,02,45,10.90
2010,08,24,02,46,10.90
2010,08,24,02,47,10.90
2010,08,24,02,48,10.90
2010,08,24,02,49,10.90
2010,08,24,02,50,10.90
2010,08,24,02,51,10.90
2010,08,24,02,52,10.90
2010,08,24,02,53,10.90
2010,08,24,02,54,10.90
2010,08,24,02,55,10.90
2010,08,24,02,56,10.90
2010,08,24,02,57,10.90
2010,08,24,02,58,10.90
2010,08,24,02,59,10.90
2010,08,24,03,00,10.90
2010,08,24,03,01,10.90
2010,08,24,03,02,11.00
2010,08,24,03,03,11.00
2010,08,24,03,04,11.00
2010,08,24,03,05,11.00
2010,08,24,03,06,11.00
2010,08,24,03,07,11.00
2010,08,24,03,08,11.00
2010,08,24,03,09,11.00
2010,08,24,03,10,11.00
2010,08,24,03,11,11.00
2010,08,24,03,12,11.00
2010,08,24,03,13,10.90
2010,08,24,03,14,10.90
2010,08,24,03,15,10.90
2010,08,24,03,16,10.90
2010,08,24,03,17,10.90
2010,08,24,03,18,10.90
2010,08,24,03,19,10.90
2010,08,24,03,20,10.90
2010,08,24,03,21,10.90
2010,08,24,03,22,11.00
2010,08,24,03,23,11.00
2010,08,24,03,24,11.00
2010,08,24,03,25,11.00
2010,08,24,03,26,11.00
2010,08,24,03,27,11.00
2010,08,24,03,28,11.00
2010,08,24,03,29,11.00
2010,08,24,03,30,11.00
2010,08,24,03,31,11.00
2010,08,24,03,32,11.00
2010,08,24,03,33,11.00
2010,08,24,03,34,11.00
2010,08,24,03,35,11.00
2010,08,24,03,36,11.00
2010,08,24,03,37,11.00
2010,08,24,03,38,11.00
2010,08,24,03,39,11.00
2010,08,24,03,40,10.90
2010,08,24,03,41,10.90
2010,08,24,03,42,10.90
2010,08,24,03,43,10.90
2010,08,24,03,44,10.90
2010,08,24,03,45,10.90
2010,08,24,03,46,11.00
2010,08,24,03,47,11.00
2010,08,24,03,48,11.00
2010,08,24,03,49,11.00
2010,08,24,03,50,11.00
2010,08,24,03,51,11.00
2010,08,24,03,52,10.90
2010,08,24,03,53,10.90
2010,08,24,03,54,10.90
2010,08,24,03,55,10.90
2010,08,24,03,56,10.90
2010,08,24,03,57,10.90
2010,08,24,03,58,10.90
2010,08,24,03,59,10.90
2010,08,24,04,00,10.90
2010,08,24,04,01,10.90
2010,08,24,04,02,10.90
2010,08,24,04,03,10.90
2010,08,24,04,04,10.90
2010,08,24,04,05,10.90
2010,08,24,04,06,10.90
2010,08,24,04,07,10.90
2010,08,24,04,08,10.90
2010,08,24,04,09,10.90
2010,08,24,04,10,11.00
2010,08,24,04,11,11.00
2010,08,24,04,12,11.00
2010,08,24,04,13,11.00
2010,08,24,04,14,11.00
2010,08,24,04,15,11.00
2010,08,24,04,16,11.00
2010,08,24,04,17,11.00
2010,08,24,04,18,11.00
2010,08,24,04,19,11.00
2010,08,24,04,20,10.90
2010,08,24,04,21,10.90
2010,08,24,04,22,10.90
2010,08,24,04,23,10.90
2010,08,24,04,24,10.90
2010,08,24,04,25,11.00
2010,08,24,04,26,11.00
2010,08,24,04,27,11.00
2010,08,24,04,28,11.00
2010,08,24,04,29,11.00
2010,08,24,04,30,11.10
2010,08,24,04,31,11.10
2010,08,24,04,32,11.10
2010,08,24,04,33,11.10
2010,08,24,04,34,11.10
2010,08,24,04,35,11.10
2010,08,24,04,36,11.10
2010,08,24,04,37,11.10
2010,08,24,04,38,11.10
2010,08,24,04,39,11.10
2010,08,24,04,40,11.10
2010,08,24,04,41,11.10
2010,08,24,04,42,11.10
2010,08,24,04,43,11.10
2010,08,24,04,44,11.10
2010,08,24,04,45,11.00
2010,08,24,04,46,11.00
2010,08,24,04,47,11.00
2010,08,24,04,48,11.00
2010,08,24,04,49,11.00
2010,08,24,04,50,11.00
2010,08,24,04,51,11.00
2010,08,24,04,52,11.00
2010,08,24,04,53,11.10
2010,08,24,04,54,11.10
2010,08,24,04,55,11.10
2010,08,24,04,56,11.10
2010,08,24,04,57,11.10
2010,08,24,04,58,11.10
2010,08,24,04,59,11.20
2010,08,24,05,00,11.20
2010,08,24,05,01,11.20
2010,08,24,05,02,11.10
2010,08,24,05,03,11.10
2010,08,24,05,04,11.10
2010,08,24,05,05,11.10
2010,08,24,05,06,11.20
2010,08,24,05,07,11.20
2010,08,24,05,08,11.20
2010,08,24,05,09,11.20
2010,08,24,05,10,11.20
2010,08,24,05,11,11.20
2010,08,24,05,12,11.20
2010,08,24,05,13,11.20
2010,08,24,05,14,11.10
2010,08,24,05,15,11.10
2010,08,24,05,16,11.10
2010,08,24,05,17,11.10
2010,08,24,05,18,11.10
2010,08,24,05,19,11.10
2010,08,24,05,20,11.10
2010,08,24,05,21,11.10
2010,08,24,05,22,11.10
2010,08,24,05,23,11.10
2010,08,24,05,24,11.10
2010,08,24,05,25,11.10
2010,08,24,05,26,11.10
2010,08,24,05,27,11.10
2010,08,24,05,28,11.10
2010,08,24,05,29,11.20
2010,08,24,05,30,11.20
2010,08,24,05,31,11.20
2010,08,24,05,32,11.20
2010,08,24,05,33,11.20
2010,08,24,05,34,11.20
2010,08,24,05,35,11.20
2010,08,24,05,36,11.30
2010,08,24,05,37,11.30
2010,08,24,05,38,11.30
2010,08,24,05,39,11.30
2010,08,24,05,40,11.30
2010,08,24,05,41,11.30
2010,08,24,05,42,11.30
2010,08,24,05,43,11.30
2010,08,24,05,44,11.30
2010,08,24,05,45,11.30
2010,08,24,05,46,11.30
2010,08,24,05,47,11.20
2010,08,24,05,48,11.20
2010,08,24,05,49,11.20
2010,08,24,05,50,11.20
2010,08,24,05,51,11.20
2010,08,24,05,52,11.20
2010,08,24,05,53,11.20
2010,08,24,05,54,11.20
2010,08,24,05,55,11.20
2010,08,24,05,56,11.20
2010,08,24,05,57,11.20
2010,08,24,05,58,11.20
2010,08,24,05,59,11.20
2010,08,24,06,00,11.20
2010,08,24,06,01,11.20
2010,08,24,06,02,11.20
2010,08,24,06,03,11.20
2010,08,24,06,04,11.20
2010,08,24,06,05,11.20
2010,08,24,06,06,11.20
2010,08,24,06,07,11.20
2010,08,24,06,08,11.20
2010,08,24,06,09,11.20
2010,08,24,06,10,11.20
2010,08,24,06,11,11.20
2010,08,24,06,12,11.20
2010,08,24,06,13,11.10
2010,08,24,06,14,11.10
2010,08,24,06,15,11.10
2010,08,24,06,16,11.10
2010,08,24,06,17,11.10
2010,08,24,06,18,11.10
2010,08,24,06,19,11.10
2010,08,24,06,20,11.10
2010,08,24,06,21,11.10
2010,08,24,06,22,11.10
2010,08,24,06,23,11.10
2010,08,24,06,24,11.10
2010,08,24,06,25,11.10
2010,08,24,06,26,11.10
2010,08,24,06,27,11.20
2010,08,24,06,28,11.20
2010,08,24,06,29,11.20
2010,08,24,06,30,11.20
2010,08,24,06,31,11.20
2010,08,24,06,32,11.20
2010,08,24,06,33,11.20
2010,08,24,06,34,11.20
2010,08,24,06,35,11.20
2010,08,24,06,36,11.20
2010,08,24,06,37,11.20
2010,08,24,06,38,11.20
2010,08,24,06,39,11.30
2010,08,24,06,40,11.30
2010,08,24,06,41,11.30
2010,08,24,06,42,11.20
2010,08,24,06,43,11.20
2010,08,24,06,44,11.30
2010,08,24,06,45,11.30
2010,08,24,06,46,11.30
2010,08,24,06,47,11.30
2010,08,24,06,48,11.30
2010,08,24,06,49,11.30
2010,08,24,06,50,11.30
2010,08,24,06,51,11.30
2010,08,24,06,52,11.30
2010,08,24,06,53,11.30
2010,08,24,06,54,11.30
2010,08,24,06,55,11.30
2010,08,24,06,56,11.30
2010,08,24,06,57,11.30
2010,08,24,06,58,11.40
2010,08,24,06,59,11.40
2010,08,24,07,00,11.40
2010,08,24,07,01,11.40
2010,08,24,07,02,11.50
2010,08,24,07,03,11.50
2010,08,24,07,04,11.50
2010,08,24,07,05,11.50
2010,08,24,07,06,11.60
2010,08,24,07,07,11.60
2010,08,24,07,08,11.60
2010,08,24,07,09,11.60
2010,08,24,07,10,11.60
2010,08,24,07,11,11.70
2010,08,24,07,12,11.70
2010,08,24,07,13,11.70
2010,08,24,07,14,11.70
2010,08,24,07,15,11.70
2010,08,24,07,16,11.80
2010,08,24,07,17,11.80
2010,08,24,07,18,11.80
2010,08,24,07,19,11.80
2010,08,24,07,20,11.80
2010,08,24,07,21,11.90
2010,08,24,07,22,11.90
2010,08,24,07,23,12.00
2010,08,24,07,24,12.00
2010,08,24,07,25,12.10
2010,08,24,07,26,12.10
2010,08,24,07,27,12.10
2010,08,24,07,28,12.20
2010,08,24,07,29,12.20
2010,08,24,07,30,12.20
2010,08,24,07,31,12.30
2010,08,24,07,32,12.30
2010,08,24,07,33,12.30
2010,08,24,07,34,12.40
2010,08,24,07,35,12.40
2010,08,24,07,36,12.50
2010,08,24,07,37,12.60
2010,08,24,07,38,12.60
2010,08,24,07,39,12.70
2010,08,24,07,40,12.80
2010,08,24,07,41,12.90
2010,08,24,07,42,13.00
2010,08,24,07,43,13.00
2010,08,24,07,44,13.10
2010,08,24,07,45,13.10
2010,08,24,07,46,13.20
2010,08,24,07,47,13.20
2010,08,24,07,48,13.30
2010,08,24,07,49,13.30
2010,08,24,07,50,13.40
2010,08,24,07,51,13.40
2010,08,24,07,52,13.50
2010,08,24,07,53,13.60
2010,08,24,07,54,13.60
2010,08,24,07,55,13.70
2010,08,24,07,56,13.70
2010,08,24,07,57,13.70
2010,08,24,07,58,13.80
2010,08,24,07,59,13.80
2010,08,24,08,00,13.90
2010,08,24,08,01,14.00
2010,08,24,08,02,14.10
2010,08,24,08,03,14.10
2010,08,24,08,04,14.20
2010,08,24,08,05,14.30
2010,08,24,08,06,14.50
2010,08,24,08,07,14.60
2010,08,24,08,08,14.70
2010,08,24,08,09,14.80
2010,08,24,08,10,14.90
2010,08,24,08,11,15.00
2010,08,24,08,12,15.10
2010,08,24,08,13,15.30
2010,08,24,08,14,15.40
2010,08,24,08,15,15.50
2010,08,24,08,16,15.60
2010,08,24,08,17,15.70
2010,08,24,08,18,15.80
2010,08,24,08,19,15.80
2010,08,24,08,20,15.90
2010,08,24,08,21,16.00
2010,08,24,08,22,16.10
2010,08,24,08,23,16.20
2010,08,24,08,24,16.20
2010,08,24,08,25,16.30
2010,08,24,08,26,16.30
2010,08,24,08,27,16.40
2010,08,24,08,28,16.40
2010,08,24,08,29,16.50
2010,08,24,08,30,16.60
2010,08,24,08,31,16.60
2010,08,24,08,32,16.70
2010,08,24,08,33,16.70
2010,08,24,08,34,16.80
2010,08,24,08,35,16.80
2010,08,24,08,36,16.90
2010,08,24,08,37,16.90
2010,08,24,08,38,16.90
2010,08,24,08,39,17.00
2010,08,24,08,40,17.00
2010,08,24,08,41,17.10
2010,08,24,08,42,17.10
2010,08,24,08,43,17.10
2010,08,24,08,44,17.20
2010,08,24,08,45,17.20
2010,08,24,08,46,17.20
2010,08,24,08,47,17.30
2010,08,24,08,48,17.30
2010,08,24,08,49,17.40
2010,08,24,08,50,17.40
2010,08,24,08,51,17.40
2010,08,24,08,52,17.50
2010,08,24,08,53,17.50
2010,08,24,08,54,17.60
2010,08,24,08,55,17.60
2010,08,24,08,56,17.60
2010,08,24,08,57,17.60
2010,08,24,08,58,17.70
2010,08,24,08,59,17.70
2010,08,24,09,00,17.80
2010,08,24,09,01,17.80
2010,08,24,09,02,17.80
2010,08,24,09,03,17.90
2010,08,24,09,04,17.90
2010,08,24,09,05,18.00
2010,08,24,09,06,18.00
2010,08,24,09,07,18.00
2010,08,24,09,08,18.10
2010,08,24,09,09,18.10
2010,08,24,09,10,18.10
2010,08,24,09,11,18.20
2010,08,24,09,12,18.20
2010,08,24,09,13,18.30
2010,08,24,09,14,18.30
2010,08,24,09,15,18.30
2010,08,24,09,16,18.40
2010,08,24,09,17,18.50
2010,08,24,09,18,18.50
2010,08,24,09,19,18.60
2010,08,24,09,20,18.60
2010,08,24,09,21,18.70
2010,08,24,09,22,18.80
2010,08,24,09,23,18.80
2010,08,24,09,24,18.80
2010,08,24,09,25,18.80
2010,08,24,09,26,18.80
2010,08,24,09,27,18.90
2010,08,24,09,28,18.90
2010,08,24,09,29,18.90
2010,08,24,09,30,19.00
2010,08,24,09,31,19.00
2010,08,24,09,32,19.10
2010,08,24,09,33,19.10
2010,08,24,09,34,19.10
2010,08,24,09,35,19.10
2010,08,24,09,36,19.20
2010,08,24,09,37,19.20
2010,08,24,09,38,19.20
2010,08,24,09,39,19.30
2010,08,24,09,40,19.30
2010,08,24,09,41,19.30
2010,08,24,09,42,19.40
2010,08,24,09,43,19.40
2010,08,24,09,44,19.40
2010,08,24,09,45,19.50
2010,08,24,09,46,19.50
2010,08,24,09,47,19.60
2010,08,24,09,48,19.60
2010,08,24,09,49,19.60
2010,08,24,09,50,19.60
2010,08,24,09,51,19.60
2010,08,24,09,52,19.60
2010,08,24,09,53,19.60
2010,08,24,09,54,19.60
2010,08,24,09,55,19.60
2010,08,24,09,56,19.60
2010,08,24,09,57,19.60
2010,08,24,09,58,19.60
2010,08,24,09,59,19.60
2010,08,24,10,00,19.60
2010,08,24,10,01,19.60
2010,08,24,10,02,19.60
2010,08,24,10,03,19.60
2010,08,24,10,04,19.60
2010,08,24,10,05,19.70
2010,08,24,10,06,19.70
2010,08,24,10,07,19.80
2010,08,24,10,08,19.90
2010,08,24,10,09,19.90
2010,08,24,10,10,19.90
2010,08,24,10,11,19.90
2010,08,24,10,12,19.90
2010,08,24,10,13,19.80
2010,08,24,10,14,19.80
2010,08,24,10,15,19.80
2010,08,24,10,16,19.80
2010,08,24,10,17,19.80
2010,08,24,10,18,19.80
2010,08,24,10,19,19.90
2010,08,24,10,20,19.90
2010,08,24,10,21,19.90
2010,08,24,10,22,20.00
2010,08,24,10,23,20.10
2010,08,24,10,24,20.10
2010,08,24,10,25,20.10
2010,08,24,10,26,20.10
2010,08,24,10,27,20.10
2010,08,24,10,28,20.10
2010,08,24,10,29,20.10
2010,08,24,10,30,20.10
2010,08,24,10,31,20.00
2010,08,24,10,32,20.00
2010,08,24,10,33,20.00
2010,08,24,10,34,20.00
2010,08,24,10,35,19.90
2010,08,24,10,36,20.00
2010,08,24,10,37,20.00
2010,08,24,10,38,20.10
2010,08,24,10,39,20.10
2010,08,24,10,40,20.20
2010,08,24,10,41,20.30
2010,08,24,10,42,20.40
2010,08,24,10,43,20.50
2010,08,24,10,44,20.60
2010,08,24,10,45,20.60
2010,08,24,10,46,20.60
2010,08,24,10,47,20.70
2010,08,24,10,48,20.80
2010,08,24,10,49,20.80
2010,08,24,10,50,20.90
2010,08,24,10,51,20.90
2010,08,24,10,52,20.90
2010,08,24,10,53,20.90
2010,08,24,10,54,20.90
2010,08,24,10,55,20.90
2010,08,24,10,56,20.90
2010,08,24,10,57,20.90
2010,08,24,10,58,20.90
2010,08,24,10,59,20.90
2010,08,24,11,00,21.00
2010,08,24,11,01,21.00
2010,08,24,11,02,21.10
2010,08,24,11,03,21.10
2010,08,24,11,04,21.10
2010,08,24,11,05,21.10
2010,08,24,11,06,21.10
2010,08,24,11,07,21.10
2010,08,24,11,08,21.00
2010,08,24,11,09,20.90
2010,08,24,11,10,21.00
2010,08,24,11,11,21.00
2010,08,24,11,12,21.00
2010,08,24,11,13,21.00
2010,08,24,11,14,21.00
2010,08,24,11,15,21.00
2010,08,24,11,16,21.00
2010,08,24,11,17,21.00
2010,08,24,11,18,21.10
2010,08,24,11,19,21.10
2010,08,24,11,20,21.20
2010,08,24,11,21,21.30
2010,08,24,11,22,21.30
2010,08,24,11,23,21.40
2010,08,24,11,24,21.40
2010,08,24,11,25,21.50
2010,08,24,11,26,21.50
2010,08,24,11,27,21.50
2010,08,24,11,28,21.50
2010,08,24,11,29,21.60
2010,08,24,11,30,21.60
2010,08,24,11,31,21.70
2010,08,24,11,32,21.70
2010,08,24,11,33,21.70
2010,08,24,11,34,21.70
2010,08,24,11,35,21.70
2010,08,24,11,36,21.70
2010,08,24,11,37,21.70
2010,08,24,11,38,21.70
2010,08,24,11,39,21.70
2010,08,24,11,40,21.70
2010,08,24,11,41,21.70
2010,08,24,11,42,21.80
2010,08,24,11,43,21.80
2010,08,24,11,44,21.80
2010,08,24,11,45,21.90
2010,08,24,11,46,21.90
2010,08,24,11,47,21.90
2010,08,24,11,48,21.90
2010,08,24,11,49,21.90
2010,08,24,11,50,21.90
2010,08,24,11,51,21.90
2010,08,24,11,52,21.90
2010,08,24,11,53,21.90
2010,08,24,11,54,21.90
2010,08,24,11,55,22.00
2010,08,24,11,56,22.00
2010,08,24,11,57,22.10
2010,08,24,11,58,22.20
2010,08,24,11,59,22.20
2010,08,24,12,00,22.20
2010,08,24,12,01,22.20
2010,08,24,12,02,22.20
2010,08,24,12,03,22.20
2010,08,24,12,04,22.30
2010,08,24,12,05,22.30
2010,08,24,12,06,22.30
2010,08,24,12,07,22.30
2010,08,24,12,08,22.30
2010,08,24,12,09,22.40
2010,08,24,12,10,22.50
2010,08,24,12,11,22.50
2010,08,24,12,12,22.50
2010,08,24,12,13,22.50
2010,08,24,12,14,22.50
2010,08,24,12,15,22.50
2010,08,24,12,16,22.60
2010,08,24,12,17,22.70
2010,08,24,12,18,22.70
2010,08,24,12,19,22.70
2010,08,24,12,20,22.80
2010,08,24,12,21,22.80
2010,08,24,12,22,22.80
2010,08,24,12,23,22.90
2010,08,24,12,24,22.90
2010,08,24,12,25,22.90
2010,08,24,12,26,22.80
2010,08,24,12,27,22.80
2010,08,24,12,28,22.80
2010,08,24,12,29,22.80
2010,08,24,12,30,22.80
2010,08,24,12,31,22.70
2010,08,24,12,32,22.70
2010,08,24,12,33,22.70
2010,08,24,12,34,22.70
2010,08,24,12,35,22.80
2010,08,24,12,36,22.80
2010,08,24,12,37,22.90
2010,08,24,12,38,22.90
2010,08,24,12,39,22.80
2010,08,24,12,40,22.80
2010,08,24,12,41,22.80
2010,08,24,12,42,22.80
2010,08,24,12,43,22.80
2010,08,24,12,44,22.80
2010,08,24,12,45,22.80
2010,08,24,12,46,22.80
2010,08,24,12,47,22.80
2010,08,24,12,48,22.90
2010,08,24,12,49,22.90
2010,08,24,12,50,22.90
2010,08,24,12,51,22.90
2010,08,24,12,52,22.90
2010,08,24,12,53,22.90
2010,08,24,12,54,23.00
2010,08,24,12,55,23.00
2010,08,24,12,56,23.10
2010,08,24,12,57,23.10
2010,08,24,12,58,23.20
2010,08,24,12,59,23.20
2010,08,24,13,00,23.10
2010,08,24,13,01,23.10
2010,08,24,13,02,23.10
2010,08,24,13,03,23.10
2010,08,24,13,04,23.10
2010,08,24,13,05,23.10
2010,08,24,13,06,23.20
2010,08,24,13,07,23.20
2010,08,24,13,08,23.30
2010,08,24,13,09,23.30
2010,08,24,13,10,23.30
2010,08,24,13,11,23.40
2010,08,24,13,12,23.40
2010,08,24,13,13,23.40
2010,08,24,13,14,23.40
2010,08,24,13,15,23.40
2010,08,24,13,16,23.40
2010,08,24,13,17,23.40
2010,08,24,13,18,23.40
2010,08,24,13,19,23.30
2010,08,24,13,20,23.30
2010,08,24,13,21,23.30
2010,08,24,13,22,23.30
2010,08,24,13,23,23.30
2010,08,24,13,24,23.30
2010,08,24,13,25,23.30
2010,08,24,13,26,23.30
2010,08,24,13,27,23.30
2010,08,24,13,28,23.30
2010,08,24,13,29,23.30
2010,08,24,13,30,23.30
2010,08,24,13,31,23.30
2010,08,24,13,32,23.30
2010,08,24,13,33,23.30
2010,08,24,13,34,23.30
2010,08,24,13,35,23.30
2010,08,24,13,36,23.30
2010,08,24,13,37,23.30
2010,08,24,13,38,23.30
2010,08,24,13,39,23.30
2010,08,24,13,40,23.30
2010,08,24,13,41,23.30
2010,08,24,13,42,23.30
2010,08,24,13,43,23.40
2010,08,24,13,44,23.40
2010,08,24,13,45,23.40
2010,08,24,13,46,23.50
2010,08,24,13,47,23.50
2010,08,24,13,48,23.60
2010,08,24,13,49,23.60
2010,08,24,13,50,23.60
2010,08,24,13,51,23.60
2010,08,24,13,52,23.70
2010,08,24,13,53,23.70
2010,08,24,13,54,23.70
2010,08,24,13,55,23.70
2010,08,24,13,56,23.80
2010,08,24,13,57,23.90
2010,08,24,13,58,23.90
2010,08,24,13,59,23.90
2010,08,24,14,00,23.90
2010,08,24,14,01,23.90
2010,08,24,14,02,24.00
2010,08,24,14,03,24.00
2010,08,24,14,04,24.00
2010,08,24,14,05,24.00
2010,08,24,14,06,24.00
2010,08,24,14,07,24.10
2010,08,24,14,08,24.10
2010,08,24,14,09,24.20
2010,08,24,14,10,24.20
2010,08,24,14,11,24.20
2010,08,24,14,12,24.30
2010,08,24,14,13,24.30
2010,08,24,14,14,24.30
2010,08,24,14,15,24.30
2010,08,24,14,16,24.30
2010,08,24,14,17,24.30
2010,08,24,14,18,24.40
2010,08,24,14,19,24.40
2010,08,24,14,20,24.40
2010,08,24,14,21,24.50
2010,08,24,14,22,24.50
2010,08,24,14,23,24.50
2010,08,24,14,24,24.50
2010,08,24,14,25,24.40
2010,08,24,14,26,24.40
2010,08,24,14,27,24.30
2010,08,24,14,28,24.30
2010,08,24,14,29,24.20
2010,08,24,14,30,24.20
2010,08,24,14,31,24.20
2010,08,24,14,32,24.20
2010,08,24,14,33,24.20
2010,08,24,14,34,24.20
2010,08,24,14,35,24.20
2010,08,24,14,36,24.20
2010,08,24,14,37,24.20
2010,08,24,14,38,24.10
2010,08,24,14,39,24.10
2010,08,24,14,40,24.10
2010,08,24,14,41,24.10
2010,08,24,14,42,24.10
2010,08,24,14,43,24.20
2010,08,24,14,44,24.30
2010,08,24,14,45,24.30
2010,08,24,14,46,24.40
2010,08,24,14,47,24.50
2010,08,24,14,48,24.60
2010,08,24,14,49,24.70
2010,08,24,14,50,24.80
2010,08,24,14,51,24.90
2010,08,24,14,52,24.90
2010,08,24,14,53,24.90
2010,08,24,14,54,24.90
2010,08,24,14,55,24.90
2010,08,24,14,56,24.90
2010,08,24,14,57,24.90
2010,08,24,14,58,24.80
2010,08,24,14,59,24.80
2010,08,24,15,00,24.70
2010,08,24,15,01,24.70
2010,08,24,15,02,24.70
2010,08,24,15,03,24.70
2010,08,24,15,04,24.60
2010,08,24,15,05,24.60
2010,08,24,15,06,24.50
2010,08,24,15,07,24.40
2010,08,24,15,08,24.40
2010,08,24,15,09,24.40
2010,08,24,15,10,24.40
2010,08,24,15,11,24.40
2010,08,24,15,12,24.40
2010,08,24,15,13,24.50
2010,08,24,15,14,24.50
2010,08,24,15,15,24.50
2010,08,24,15,16,24.60
2010,08,24,15,17,24.60
2010,08,24,15,18,24.70
2010,08,24,15,19,24.70
2010,08,24,15,20,24.80
2010,08,24,15,21,24.90
2010,08,24,15,22,25.00
2010,08,24,15,23,25.00
2010,08,24,15,24,25.00
2010,08,24,15,25,25.00
2010,08,24,15,26,24.90
2010,08,24,15,27,24.90
2010,08,24,15,28,24.80
2010,08,24,15,29,24.80
2010,08,24,15,30,24.70
2010,08,24,15,31,24.70
2010,08,24,15,32,24.70
2010,08,24,15,33,24.80
2010,08,24,15,34,24.80
2010,08,24,15,35,24.80
2010,08,24,15,36,24.80
2010,08,24,15,37,24.80
2010,08,24,15,38,24.80
2010,08,24,15,39,24.80
2010,08,24,15,40,24.80
2010,08,24,15,41,24.80
2010,08,24,15,42,24.90
2010,08,24,15,43,24.90
2010,08,24,15,44,25.00
2010,08,24,15,45,25.00
2010,08,24,15,46,25.10
2010,08,24,15,47,25.10
2010,08,24,15,48,25.10
2010,08,24,15,49,25.20
2010,08,24,15,50,25.20
2010,08,24,15,51,25.20
2010,08,24,15,52,25.20
2010,08,24,15,53,25.20
2010,08,24,15,54,25.10
2010,08,24,15,55,25.10
2010,08,24,15,56,25.20
2010,08,24,15,57,25.20
2010,08,24,15,58,25.20
2010,08,24,15,59,25.30
2010,08,24,16,00,25.30
2010,08,24,16,01,25.40
2010,08,24,16,02,25.40
2010,08,24,16,03,25.40
2010,08,24,16,04,25.40
2010,08,24,16,05,25.30
2010,08,24,16,06,25.30
2010,08,24,16,07,25.20
2010,08,24,16,08,25.20
2010,08,24,16,09,25.10
2010,08,24,16,10,25.10
2010,08,24,16,11,25.10
2010,08,24,16,12,25.10
2010,08,24,16,13,25.10
2010,08,24,16,14,25.10
2010,08,24,16,15,25.00
2010,08,24,16,16,25.00
2010,08,24,16,17,25.00
2010,08,24,16,18,25.00
2010,08,24,16,19,25.10
2010,08,24,16,20,25.10
2010,08,24,16,21,25.10
2010,08,24,16,22,25.20
2010,08,24,16,23,25.20
2010,08,24,16,24,25.20
2010,08,24,16,25,25.30
2010,08,24,16,26,25.30
2010,08,24,16,27,25.30
2010,08,24,16,28,25.30
2010,08,24,16,29,25.30
2010,08,24,16,30,25.30
2010,08,24,16,31,25.30
2010,08,24,16,32,25.30
2010,08,24,16,33,25.30
2010,08,24,16,34,25.30
2010,08,24,16,35,25.30
2010,08,24,16,36,25.30
2010,08,24,16,37,25.40
2010,08,24,16,38,25.40
2010,08,24,16,39,25.40
2010,08,24,16,40,25.40
2010,08,24,16,41,25.30
2010,08,24,16,42,25.30
2010,08,24,16,43,25.30
2010,08,24,16,44,25.40
2010,08,24,16,45,25.40
2010,08,24,16,46,25.40
2010,08,24,16,47,25.50
2010,08,24,16,48,25.50
2010,08,24,16,49,25.50
2010,08,24,16,50,25.50
2010,08,24,16,51,25.60
2010,08,24,16,52,25.60
2010,08,24,16,53,25.60
2010,08,24,16,54,25.60
2010,08,24,16,55,25.60
2010,08,24,16,56,25.60
2010,08,24,16,57,25.60
2010,08,24,16,58,25.60
2010,08,24,16,59,25.60
2010,08,24,17,00,25.50
2010,08,24,17,01,25.40
2010,08,24,17,02,25.40
2010,08,24,17,03,25.30
2010,08,24,17,04,25.30
2010,08,24,17,05,25.30
2010,08,24,17,06,25.30
2010,08,24,17,07,25.30
2010,08,24,17,08,25.20
2010,08,24,17,09,25.20
2010,08,24,17,10,25.20
2010,08,24,17,11,25.30
2010,08,24,17,12,25.30
2010,08,24,17,13,25.30
2010,08,24,17,14,25.30
2010,08,24,17,15,25.30
2010,08,24,17,16,25.30
2010,08,24,17,17,25.30
2010,08,24,17,18,25.30
2010,08,24,17,19,25.30